Change the Weather History Date:

Sunday, November 17, 2013

  Actual Average Record
Temperature  
Mean Temperature 59 °F 49 °F  
Max Temperature 65 °F 57 °F 77 °F (1896)
Min Temperature 52 °F 41 °F 17 °F (1933)
Degree Days  
Heating Degree Days 6 16  
Month to date heating degree days 241 227  
Since 1 July heating degree days 406 456  
Cooling Degree Days 0 0  
Month to date cooling degree days 2 0  
Year to date cooling degree days 1719 1547  
Growing Degree Days 8 (Base 50)    
Moisture  
Dew Point 53 °F    
Average Humidity 85    
Maximum Humidity 96    
Minimum Humidity 73    
Precipitation  
Precipitation T in 0.11 in 2.04 in (1927)
Month to date precipitation 0.57 1.78  
Year to date precipitation 36.36 35.30  
Snow  
Snow 0.00 in 0.00 in T in (1992)
Month to date snowfall 0.0 0.2  
Since 1 July snowfall 0.0 0.2  
Snow Depth 0.00 in    
Sea Level Pressure  
Sea Level Pressure 30.10 in    
Wind  
Wind Speed 7 mph (South)    
Max Wind Speed 15 mph    
Max Gust Speed 20 mph    
Visibility 7 miles    
Events Rain    
T = Trace of Precipitation, MM = Missing Value Source: NWS Daily Summary

Daily Weather History Graph

Daily Weather History Graph

Search for Another Location

Airport or City:

Trip Planner

Search our weather history database for the weather conditions in past years. The results will help you decide how hot, cold, wet, or windy it might be!

Date:

Astronomy

Nov. 17, 2013 Rise Set
Actual Time 6:53 AM EST 4:52 PM EST
Civil Twilight 6:24 AM EST 5:21 PM EST
Nautical Twilight 5:52 AM EST 5:53 PM EST
Astronomical Twilight 5:20 AM EST 6:25 PM EST
Moon 5:08 PM EST (11/17) 6:45 AM EST (11/17)
Length of Visible Light 10h 56m
Length of Day
9h 59m
Full, 100% of the Moon is Illuminated
Nov 17
Full
Nov 25
Last Quarter
Dec 2
New
Dec 9
First Quarter
Dec 17
Full

Hourly Weather History & Observations

Time (EST) Temp. Dew Point Humidity Pressure Visibility Wind Dir Wind Speed Gust Speed Precip Events Conditions
12:52 AM 53.1 °F 50.0 °F 89% 30.24 in 4.0 mi West 3.5 mph - N/A   Overcast
1:41 AM 51.8 °F 50.0 °F 94% 30.24 in 2.5 mi Calm Calm - N/A   Overcast
1:45 AM 51.8 °F 48.2 °F 88% 30.24 in 1.8 mi Calm Calm - N/A   Overcast
1:52 AM 52.0 °F 50.0 °F 93% 30.24 in 3.0 mi Calm Calm - N/A   Overcast
2:06 AM 51.8 °F 50.0 °F 94% 30.23 in 3.0 mi Calm Calm - N/A   Overcast
2:22 AM 53.6 °F 50.0 °F 88% 30.21 in 3.0 mi Calm Calm - N/A   Overcast
2:32 AM 53.6 °F 50.0 °F 88% 30.20 in 3.0 mi SE 3.5 mph - N/A   Overcast
2:49 AM 53.6 °F 51.8 °F 94% 30.20 in 5.0 mi South 4.6 mph - N/A   Overcast
2:52 AM 54.0 °F 51.1 °F 90% 30.20 in 6.0 mi South 4.6 mph - N/A   Overcast
3:13 AM 53.6 °F 51.8 °F 94% 30.20 in 7.0 mi SSE 4.6 mph - N/A   Overcast
3:52 AM 55.0 °F 52.0 °F 89% 30.20 in 6.0 mi SSW 4.6 mph - N/A   Overcast
4:52 AM 54.0 °F 52.0 °F 93% 30.19 in 4.0 mi SE 4.6 mph - N/A   Overcast
5:52 AM 54.0 °F 52.0 °F 93% 30.18 in 3.0 mi Calm Calm - N/A   Overcast
6:10 AM 53.6 °F 50.0 °F 88% 30.16 in 3.0 mi SSE 4.6 mph - N/A   Mostly Cloudy
6:30 AM 53.6 °F 51.8 °F 94% 30.15 in 3.0 mi Calm Calm - N/A   Mostly Cloudy
6:52 AM 53.1 °F 51.1 °F 93% 30.16 in 3.0 mi SW 3.5 mph - N/A   Mostly Cloudy
6:54 AM 53.6 °F 51.8 °F 94% 30.16 in 3.0 mi SW 4.6 mph - N/A   Mostly Cloudy
7:52 AM 55.0 °F 52.0 °F 89% 30.18 in 3.0 mi SSW 3.5 mph - N/A   Overcast
8:16 AM 53.6 °F 51.8 °F 94% 30.18 in 2.5 mi South 3.5 mph - N/A   Overcast
8:38 AM 55.4 °F 51.8 °F 88% 30.18 in 3.0 mi South 6.9 mph - N/A   Overcast
8:52 AM 54.0 °F 52.0 °F 93% 30.18 in 3.0 mi South 4.6 mph - N/A   Overcast
9:48 AM 59.0 °F 53.6 °F 82% 30.17 in 9.0 mi South 6.9 mph - N/A   Mostly Cloudy
9:52 AM 59.0 °F 54.0 °F 83% 30.17 in 10.0 mi South 8.1 mph - N/A   Mostly Cloudy
10:52 AM 60.1 °F 54.0 °F 80% 30.15 in 10.0 mi SSW 6.9 mph - N/A   Mostly Cloudy
11:52 AM 60.1 °F 54.0 °F 80% 30.12 in 10.0 mi South 8.1 mph - N/A   Overcast
12:52 PM 62.1 °F 55.0 °F 78% 30.08 in 10.0 mi South 6.9 mph - N/A   Overcast
1:52 PM 64.0 °F 55.0 °F 73% 30.05 in 10.0 mi SSW 10.4 mph - N/A   Mostly Cloudy
2:52 PM 64.9 °F 55.9 °F 73% 30.02 in 10.0 mi SSW 10.4 mph - N/A   Mostly Cloudy
3:52 PM 62.1 °F 55.0 °F 78% 30.01 in 10.0 mi South 5.8 mph - N/A   Overcast
4:52 PM 60.1 °F 54.0 °F 80% 29.99 in 10.0 mi South 8.1 mph - N/A   Overcast
5:52 PM 60.1 °F 54.0 °F 80% 29.97 in 10.0 mi South 8.1 mph - N/A   Overcast
6:52 PM 60.1 °F 54.0 °F 80% 29.93 in 10.0 mi South 10.4 mph - N/A   Overcast
7:52 PM 59.0 °F 54.0 °F 83% 29.92 in 10.0 mi South 10.4 mph - N/A   Overcast
8:34 PM 60.8 °F 55.4 °F 82% 29.90 in 10.0 mi South 8.1 mph - 0.00 in Rain Light Rain
8:52 PM 60.1 °F 55.0 °F 83% 29.88 in 10.0 mi South 9.2 mph - 0.00 in   Overcast
9:52 PM 61.0 °F 55.9 °F 83% 29.85 in 10.0 mi South 8.1 mph - N/A   Overcast
10:52 PM 57.9 °F 55.0 °F 90% 29.82 in 10.0 mi South 10.4 mph - 0.00 in   Overcast
11:52 PM 61.0 °F 57.0 °F 87% 29.77 in 10.0 mi SSW 12.7 mph - 0.00 in   Mostly Cloudy